| time (UTC) | temp F | wind direction | speed MPH | gust MPH | rain 1hr in | rain 24hr in | rain mn in | humidity % | barometer mb |
| 20260506143730 | 48 | 271 | 2.0 | 5.0 | 0.00 | 0.00 | 0.00 | 92 | 924.2 |
| 20260506140730 | 48 | 277 | 4.0 | 9.0 | 0.00 | 0.00 | 0.00 | 89 | 924.1 |
| 20260506133730 | 48 | 294 | 4.0 | 10.0 | 0.00 | 0.00 | 0.00 | 91 | 924.3 |
| 20260506130731 | 48 | 277 | 3.0 | 8.0 | 0.00 | 0.00 | 0.00 | 90 | 923.9 |
| 20260506123730 | 48 | 288 | 2.0 | 6.0 | 0.00 | 0.00 | 0.00 | 92 | 923.9 |
| 20260506120729 | 47 | 295 | 5.0 | 14.0 | 0.00 | 0.00 | 0.00 | 93 | 923.5 |
| 20260506113729 | 47 | 273 | 5.0 | 11.0 | 0.00 | 0.00 | 0.00 | 94 | 923.4 |
| 20260506110730 | 46 | 292 | 6.0 | 12.0 | 0.00 | 0.00 | 0.00 | 95 | 923.3 |
| 20260506103730 | 47 | 288 | 4.0 | 12.0 | 0.00 | 0.00 | 0.00 | 95 | 923.4 |
| 20260506100730 | 47 | 288 | 4.0 | 9.0 | 0.00 | 0.00 | 0.00 | 96 | 923.1 |
| 20260506093730 | 48 | 277 | 3.0 | 6.0 | 0.00 | 0.00 | 0.00 | 95 | 922.7 |
| 20260506090730 | 49 | 291 | 1.0 | 3.0 | 0.00 | 0.00 | 0.00 | 94 | 922.4 |
| 20260506083730 | 49 | 269 | 1.0 | 2.0 | 0.00 | 0.00 | 0.00 | 93 | 922.0 |
| 20260506080730 | 50 | 174 | 1.0 | 2.0 | 0.00 | 0.00 | 0.00 | 92 | 921.6 |
| 20260506070729 | 48 | 321 | 1.0 | 3.0 | 0.00 | 0.00 | 0.00 | 96 | 921.5 |
| 20260506060730 | 47 | 282 | 1.0 | 4.0 | 0.00 | 0.00 | 0.00 | 97 | 921.7 |
| 20260506050730 | 41 | 125 | 0.0 | 2.0 | 0.00 | 0.00 | 0.00 | 96 | 922.0 |
| 20260506043730 | 40 | 212 | 0.0 | 2.0 | 0.00 | 0.00 | 0.00 | 96 | 921.8 |
| 20260506040730 | 40 | 306 | 0.0 | 1.0 | 0.00 | 0.00 | 0.00 | 96 | 922.0 |
| 20260506033731 | 41 | 221 | 0.0 | 2.0 | 0.00 | 0.00 | 0.00 | 95 | 922.1 |
| 20260506030730 | 41 | 124 | 0.0 | 1.0 | 0.00 | 0.00 | 0.00 | 96 | 922.4 |
| 20260506023730 | 44 | 166 | 1.0 | 2.0 | 0.00 | 0.00 | 0.00 | 95 | 922.9 |
| 20260506020730 | 42 | 202 | 0.0 | 0.0 | 0.00 | 0.00 | 0.00 | 93 | 923.0 |
| 20260506013730 | 45 | 307 | 1.0 | 3.0 | 0.00 | 0.00 | 0.00 | 89 | 923.2 |
| 20260506010730 | 48 | 238 | 1.0 | 3.0 | 0.00 | 0.00 | 0.00 | 88 | 923.5 |
| 20260506003730 | 49 | 260 | 1.0 | 2.0 | 0.00 | 0.00 | 0.00 | 90 | 924.1 |
| 20260506000730 | 49 | 240 | 0.0 | 2.0 | 0.00 | 0.00 | 0.00 | 91 | 924.4 |
| 20260505233731 | 48 | 290 | 0.0 | 2.0 | 0.00 | 0.00 | 0.00 | 93 | 924.5 |
| 20260505230730 | 49 | 216 | 1.0 | 1.0 | 0.00 | 0.00 | 0.00 | 88 | 924.9 |
| 20260505223730 | 49 | 278 | 1.0 | 2.0 | 0.00 | 0.00 | 0.00 | 91 | 924.9 |
| 20260505220730 | 47 | 113 | 0.0 | 2.0 | 0.00 | 0.00 | 0.00 | 93 | 924.8 |
| 20260505213730 | 47 | 279 | 1.0 | 3.0 | 0.00 | 0.00 | 0.00 | 92 | 924.9 |
| 20260505210730 | 47 | 134 | 0.0 | 1.0 | 0.00 | 0.00 | 0.00 | 92 | 925.0 |
| 20260505203729 | 46 | 58 | 0.0 | 1.0 | 0.00 | 0.00 | 0.00 | 92 | 925.0 |
| 20260505200729 | 45 | 139 | 0.0 | 0.0 | 0.00 | 0.00 | 0.00 | 92 | 924.9 |
| 20260505193730 | 46 | 269 | 1.0 | 2.0 | 0.00 | 0.00 | 0.00 | 89 | 924.6 |
| 20260505190730 | 50 | 62 | 0.0 | 0.0 | 0.00 | 0.00 | 0.00 | 81 | 924.4 |
| 20260505183729 | 52 | 249 | 1.0 | 2.0 | 0.00 | 0.00 | 0.00 | 75 | 924.2 |
| 20260505180729 | 53 | 234 | 2.0 | 4.0 | 0.00 | 0.00 | 0.00 | 74 | 924.0 |
| 20260505173730 | 55 | 238 | 3.0 | 6.0 | 0.00 | 0.00 | 0.00 | 72 | 924.2 |
| 20260505170730 | 54 | 293 | 5.0 | 10.0 | 0.00 | 0.00 | 0.00 | 78 | 924.6 |
| 20260505163730 | 56 | 272 | 2.0 | 5.0 | 0.00 | 0.00 | 0.00 | 81 | 924.4 |
| 20260505160730 | 53 | 243 | 1.0 | 3.0 | 0.00 | 0.00 | 0.00 | 85 | 924.2 |
| 20260505150730 | 55 | 293 | 5.0 | 11.0 | 0.00 | 0.00 | 0.00 | 87 | 924.2 |